Regional Weather Roundup
Issued by NWS State College, PA

Home | Current Version | Previous Version | Text Only | Print | Product List | Glossary Off
Versions: 1 2 3 4 5 6 7 8 9 10 11 12 13 14 15 16 17 18 19 20 21 22 23 24 25 26 27 28 29 30 31 32 33 34 35 36 37 38 39 40 41 42 43 44 45 46 47 48 49 50

000
ASUS41 KCTP 310410
RWRCTP

REGIONAL WEATHER ROUNDUP
NATIONAL WEATHER SERVICE STATE COLLEGE PA
1200 AM EDT THU JUL 31 2014

Note: "fair" indicates few or no clouds below 12,000 feet with no
significant weather and/or obstructions to visibility.

* = STATION THAT DOES NOT REPORT PRECIPITATION /E.G. RAIN...SNOW...ETC/
    THUNDER OR FOG.

PAZ002>004-007>009-013>016-020>023-029>032-310500-
WESTERN PENNSYLVANIA

CITY           SKY/WX    TMP DP  RH WIND       PRES   REMARKS
ERIE           CLOUDY    64  58  80 S9        30.00F
MEADVILLE      MOCLDY    60  58  92 S6        30.03F
FRANKLIN*      MOCLDY    57  54  88 S7        30.06S
NEW CASTLE     FAIR      61  57  86 CALM      30.05S
BEAVER COUNTY  NOT AVBL
BUTLER*        PTCLDY    59  54  82 S3        30.08S
PITTSBURGH INT MOCLDY    60  57  89 S3        30.06S
PITTSBURGH     MOCLDY    59  56  89 S7        30.06S FOG
INDIANA*       CLOUDY    61  57  88 CALM      30.12S
LATROBE        PTCLDY    59  59 100 CALM      30.08F
WASHINGTON CO* MOCLDY    55  55 100 CALM      30.07F
$$

PAZ004>006-010>012-017>019-024>028-033>037-041-042-045-046-049>053-310500-
CENTRAL PENNSYLVANIA

CITY           SKY/WX    TMP DP  RH WIND       PRES   REMARKS
BRADFORD       MOCLDY    55  53  93 SE3       30.06F
DUBOIS         MOCLDY    58  56  93 CALM      30.06F
CLEARFIELD     FOG       57  57 100 CALM      30.07F VSB 1/4
JOHNSTOWN      CLOUDY    58  54  86 SW5       30.10S
ALTOONA        CLOUDY    61  59  93 CALM      30.09S
STATE COLLEGE  MOCLDY    58  57  97 W3        30.08S
WILLIAMSPORT   CLOUDY    60  57  89 N3        30.06S
SELINSGROVE    CLOUDY    61  59  93 CALM      30.08S
FT INDIANTOWN  DRIZZLE   64  63  94 W7        30.07R
CAPITAL CITY   RAIN      62  60  93 W6        30.08R FOG
HARRISBURG     RAIN      65  61  87 W8        30.07R
YORK           CLOUDY    65  58  78 N8        30.08R
$$

PAZ038>040-043-044-047-048-054-055-060>062-067>071-310500-
EASTERN PENNSYLVANIA

CITY           SKY/WX    TMP DP  RH WIND       PRES   REMARKS
SCRANTON       CLOUDY    63  57  81 SW3       30.06S
MOUNT POCONO   PTCLDY    57  53  86 W6        30.09S
ALLENTOWN      PTCLDY    63  56  78 CALM      30.06R
QUAKERTOWN*    CLEAR     59  57  94 CALM      30.07S
READING        PTCLDY    66  57  72 SW5       30.06S
LANCASTER      MOCLDY    64  57  78 CALM      30.07R
COATESVILLE    PTCLDY    64  55  72 W3        30.08S
POTTSTOWN      PTCLDY    61  56  83 CALM      30.08R
BLUE BELL      CLEAR     61  59  94 CALM      30.06S
DOYLESTOWN     CLEAR     61  57  87 S3        30.06S
WILLOW GROVE   NOT AVBL
NORTH PHILA    CLEAR     68  54  60 CALM      30.07S
PHILADELPHIA   PTCLDY    70  56  61 SW7       30.06S
$$



USA.gov is the U.S. government's official web portal to all federal, state and local government web resources and services.